Location: Unspecified
(0.0000°N, 0.0000°E)
Time: 06:16:05
(UTC+00:00)

Vanguard 2 Rocket - Pass Details

Date: 16 October 2022
Orbit: 555 x 3321 km, 32.9° (Epoch: 06 December)

Event Time Altitude Azimuth Distance (km) Brightness Sun altitude
Rises 20:35:09 0° 300° (WNW) 7,262 12.0 -41.8°
Reaches altitude 10° 20:43:34 10° 318° (NW) 6,252 11.4 -43.8°
Maximum altitude 20:54:21 17° 352° (N) 5,370 10.7 -46.4°
Enters shadow 20:57:43 16° 4° (N) 5,264 10.6 -47.3°
Drops below altitude 10° 21:03:43 10° 26° (NNE) 5,350 - -48.7°
Sets 21:09:53 0° 46° (NE) 5,832 - -50.2°
